Location: Arrodets-la-Barthe
(43.0306°N, 0.2829°E)
Time: 12:17:56
(UTC+00:00)

Iridium 4 Rocket - Pass Details

Date: 07 June 2022
Orbit: 585 x 902 km, 86.9° (Epoch: 01 July)

Event Time Altitude Azimuth Distance (km) Brightness Sun altitude
Rises 20:04:50 0° 20° (NNE) 3,212 7.0 -5.2°
Reaches altitude 10° 20:09:11 10° 56° (NE) 2,368 5.9 -5.8°
Maximum altitude 20:10:40 11° 72° (ENE) 2,318 5.7 -6.0°
Drops below altitude 10° 20:12:11 10° 88° (E) 2,419 5.6 -6.2°
Enters shadow 20:14:29 - 109° (ESE) 2,824 5.8 -6.5°
